x

Cape Elizabeth- 45nm Nw Of Aberdeen, Wa (46041) Wave Buoy

2:50 - Mon 2nd May 2016 All times are PDT. -7 hours from GMT.

  • Sig Wave height 5.6ft
  • Swell Direction
  • Peak Period 11s
  • Average Period 9s
  • Wind
    7mph, 9mph gusts
  • Sea Temp 54°f
  • Aire Temp 58°f
  • Sea Pressure 1012mb
  • Cape Elizabeth- 45nm Nw Of Aberdeen, Wa
  • Cape Elizabeth- 45nm Nw Of Aberdeen, Wa

More Historic Weather Station data

Upgrade to MSW Pro to gain access to the past 30 days of data for over 8000 Wavebouys and Weather Stations around the globe.

Join Pro

Comparision Forecast

View Surf forecast
   
lun 05/02 2:50 5.5ft 11s 9s 7 9 mph 1012mb 54f 58f
1:50 5.5ft 12s 9s 7 9 mph 1012.1mb 54f 57f
12:50 6ft 11s 9s 7
mph
1012mb 54f 57f
dom 05/01 11:50 6ft 12s 9s 4 7 mph 1012mb 54f 57f
10:50 5.5ft 12s 9s 9 11 mph 1012.2mb 54f 58f
9:50 5ft 12s 9s 9
mph
1012.4mb 54f 57f
8:50 5ft 12s 9s 9
mph
1012.5mb 55f 56f
7:50 5ft 11s 8s 11 13 mph 1012.4mb 55f 57f
6:50 5ft 12s 9s 9
mph
1013.2mb 55f 57f
5:50 5ft 13s 9s 9 11 mph 1013.9mb 55f 57f
4:50 5ft 11s 8s 9 11 mph 1015.1mb 55f 57f
3:50 5ft 14s 8s 9 11 mph 1015.9mb 56f 56f
2:50 5.5ft 13s 8s 13
mph
1016.6mb 56f 57f
1:50 5ft 14s 8s 9 11 mph 1017.5mb 57f 56f
12:50 5.5ft 14s 8s 4 7 mph 1018.5mb 57f 56f
11:50 5ft 14s 8s 2 4 mph 1019.3mb 56f 55f
10:50 6ft 14s 8s  -  2 mph 1019.9mb 55f 55f
9:50 5.5ft 14s 8s 2 4 mph 1020.6mb 55f 53f
8:50 5ft 14s 7s 4
mph
1021.5mb 54f 53f
7:50 6ft 14s 8s 4 7 mph 1022mb 54f 53f
6:50 6ft 14s 8s 7
mph
1022.3mb 54f 52f
5:50 5.5ft 13s 8s 7 9 mph 1022.6mb 54f 52f
4:50 5.5ft 13s 7s 9
mph
1023mb 54f 52f
3:50 6ft 13s 7s 11 13 mph 1023.4mb 55f 52f
2:50 6ft 12s 7s 13 16 mph 1024.2mb 55f 53f
1:50 6ft 13s 6s 16 20 mph 1024.7mb 55f 53f
12:50 5.5ft 14s 6s 18 20 mph 1025.4mb 55f 53f
sáb 04/30 11:50 6ft 10s 6s 16 20 mph 1026mb 55f 53f
10:50 6ft 10s 6s 20 22 mph 1026.3mb 55f 53f
9:50 6ft 11s 6s 20 25 mph 1026.6mb 55f 53f
8:50 6ft 10s 6s 20 22 mph 1026.6mb 55f 53f
7:50 6ft 10s 6s 20 22 mph 1026.8mb 55f 53f
6:50 5.5ft 10s 6s 20 22 mph 1027.1mb 55f 53f
5:50 6ft 10s 6s 18 20 mph 1027.6mb 55f 53f
4:50 6ft 10s 7s 18 20 mph 1027.8mb 55f 53f
3:50 6ft 10s 7s 13 16 mph 1028.3mb 55f 53f
2:50 6ft 10s 7s 13 16 mph 1028.7mb 55f 52f
1:50 6.5ft 11s 7s 13 18 mph 1029.1mb 55f 52f
12:50 6ft 11s 7s 11 16 mph 1029.4mb 55f 52f
11:50 6.5ft 11s 7s 11
mph
1029.3mb 55f 52f
10:50 6.5ft 11s 7s 9 13 mph 1029.1mb 55f 52f
9:50 7ft 11s 7s 9 13 mph 1029mb 55f 52f
8:50 8ft 10s 7s 7 9 mph 1028.5mb 55f 52f
7:50 8ft 11s 7s 11 13 mph 1028.1mb 55f 52f
5:50 9ft 8s 7s 11 16 mph 1026.9mb 55f 52f
4:50 8ft 8s 7s 13 18 mph 1026.6mb 55f 52f
3:50 9ft 8s 7s 13 18 mph 1026.5mb 55f 52f
2:50 9ft 8s 7s 16 22 mph 1026.2mb 55f 52f
1:50 8.5ft 8s 7s 18 22 mph 1025.8mb 55f 52f
12:50 9.5ft 8s 7s 18 22 mph 1025.6mb 55f 52f
vie 04/29 11:50 9ft 9s 7s 20 22 mph 1025.3mb 55f 52f
10:50 8.5ft 7s 6s 22 25 mph 1025.2mb 55f 52f
9:50 8.5ft 8s 6s 20 25 mph 1024.8mb 55f 52f
8:50 8ft 8s 6s 20 27 mph 1024.1mb 55f 52f
6:50 8ft 8s 6s 20 27 mph 1023.3mb 55f 53f
5:50 7.5ft 12s 6s 20 25 mph 1023.1mb 55f 52f
4:50 8ft 12s 7s 20 25 mph 1022.8mb 56f 53f
3:50 6ft 11s 7s 20 22 mph 1022.5mb 56f 53f
2:50 6.5ft 12s 8s 13 16 mph 1022.2mb 56f 53f
1:50 6ft 12s 8s 9 11 mph 1021.8mb 56f 52f
12:50 5ft 10s 8s 13 16 mph 1021.5mb 56f 51f
11:50 5.5ft 10s 8s 9 11 mph 1021.2mb 56f 51f
10:50 5ft 11s 9s 11 16 mph 1021mb 56f 51f
9:50 6ft 13s 9s 9 11 mph 1020.6mb 55f 51f
8:50 6ft 13s 9s 9 13 mph 1020.2mb 55f 52f
7:50 6ft 12s 9s 9 11 mph 1019.5mb 55f 52f
6:50 6ft 12s 9s 9 13 mph 1019.4mb 56f 52f
5:50 6ft 13s 9s 9 11 mph 1019.3mb 56f 52f
4:50 6ft 13s 8s 9 11 mph 1019.4mb 56f 51f
3:50 6ft 13s 8s 7 9 mph 1019.7mb 56f 51f
2:50 6ft 11s 8s 9 11 mph 1019.8mb 56f 52f
1:50 7ft 10s 9s 9 11 mph 1020.1mb 56f 52f
12:50 7ft 13s 9s 11 13 mph 1020.4mb 56f 52f
jue 04/28 11:50 7ft 10s 9s 11 13 mph 1020.5mb 56f 52f
10:50 7.5ft 11s 9s 9 11 mph 1020.6mb 56f 52f
9:50 7.5ft 11s 9s 9 13 mph 1020.7mb 56f 52f
8:50 8ft 12s 9s 9 11 mph 1020.6mb 56f 52f
7:50 7.5ft 14s 9s 9 11 mph 1020.2mb 56f 52f
6:50 7.5ft 14s 9s 9 11 mph 1020.5mb 56f 52f
5:50 8ft 13s 9s 9 13 mph 1020.8mb 56f 52f
4:50 9ft 14s 10s 13 16 mph 1021mb 56f 51f
3:50 8ft 14s 8s 16 18 mph 1021mb 56f 51f
2:50 8.5ft 14s 9s 16 20 mph 1021.3mb 56f 51f
1:50 8.5ft 14s 9s 13 18 mph 1021.4mb 56f 52f
12:50 8.5ft 14s 9s 11 16 mph 1020.9mb 56f 52f
11:50 8.5ft 13s 9s 9 13 mph 1020.4mb 56f 52f